K9UO Weather Reports


time (UTC)temp
C
wind
direction
speed
KPH
gust
KPH
rain 1hr
cm
rain 24hr
cm
rain mn
cm
humidity
%
barometer
mb
20260903092504 25 240 1.6 4.8 0.00 0.00 0.00 76 1016.2
20260903092005 25 211 1.6 4.8 0.00 0.00 0.00 76 1016.2
20260903091510 25 216 1.6 8.0 0.00 0.00 0.00 76 1016.2
20260903091003 25 204 1.6 8.0 0.00 0.00 0.00 76 1016.3
20260903090503 25 206 4.8 8.0 0.00 0.00 0.00 76 1016.2
20260903090014 26 226 1.6 6.4 0.00 0.00 0.00 76 1016.1
20260903085508 26 217 3.2 6.4 0.00 0.00 0.00 76 1016.1
20260903085007 26 208 3.2 9.7 0.00 0.00 0.00 76 1016.1
20260903084523 26 240 3.2 9.7 0.00 0.00 0.00 76 1016.1
20260903084010 26 223 4.8 9.7 0.00 0.00 0.00 76 1016.1
20260903083513 26 205 3.2 11.3 0.00 0.00 0.00 76 1016.1
20260903083026 26 209 4.8 11.3 0.00 0.00 0.00 76 1016.1
20260903082512 26 207 4.8 11.3 0.00 0.00 0.00 76 1016.1
20260903082016 26 236 4.8 11.3 0.00 0.00 0.00 76 1016.1
20260903081504 26 210 4.8 8.0 0.00 0.00 0.00 76 1016.1
20260903081002 26 210 3.2 11.3 0.00 0.00 0.00 76 1016.1
20260903080502 26 221 3.2 12.9 0.00 0.00 0.00 75 1016.2
20260903080011 26 202 6.4 12.9 0.00 0.00 0.00 75 1016.2
20260903075508 26 238 4.8 9.7 0.00 0.00 0.00 76 1016.1
20260903075008 26 226 4.8 12.9 0.00 0.00 0.00 75 1016.1
20260903074518 26 209 3.2 12.9 0.00 0.00 0.00 75 1016.0
20260903074012 26 201 4.8 9.7 0.00 0.00 0.00 76 1016.0
20260903073513 26 188 3.2 11.3 0.00 0.00 0.00 76 1016.1
20260903073027 26 204 4.8 11.3 0.00 0.00 0.00 76 1016.0
20260903072517 26 222 6.4 12.9 0.00 0.00 0.00 76 1016.0
20260903072022 26 196 6.4 12.9 0.00 0.00 0.00 76 1016.0
20260903071534 26 196 4.8 11.3 0.00 0.00 0.00 76 1016.0
20260903071016 26 221 8.0 11.3 0.00 0.00 0.00 77 1016.0
20260903070505 26 202 4.8 9.7 0.00 0.00 0.00 77 1016.1
20260903070007 26 188 4.8 8.0 0.00 0.00 0.00 78 1016.2
20260903065507 26 210 3.2 8.0 0.00 0.00 0.00 78 1016.2
20260903065007 26 200 3.2 6.4 0.00 0.00 0.00 78 1016.2
20260903064516 26 207 4.8 6.4 0.00 0.00 0.00 78 1016.2
20260903064010 25 211 3.2 8.0 0.00 0.00 0.00 79 1016.2
20260903063512 25 183 3.2 8.0 0.00 0.00 0.00 79 1016.3
20260903063023 25 219 3.2 6.4 0.00 0.00 0.00 79 1016.3
20260903062514 25 201 3.2 6.4 0.00 0.00 0.00 79 1016.3
20260903062013 25 201 3.2 6.4 0.00 0.00 0.00 79 1016.3
20260903061537 25 200 3.2 6.4 0.00 0.00 0.00 79 1016.3
20260903061016 26 225 3.2 6.4 0.00 0.00 0.00 79 1016.3
20260903060515 26 204 3.2 8.0 0.00 0.00 0.00 79 1016.3
20260903060030 26 200 1.6 8.0 0.00 0.00 0.00 79 1016.3
20260903055507 26 205 3.2 8.0 0.00 0.00 0.00 79 1016.3
20260903055006 26 205 3.2 9.7 0.00 0.00 0.00 79 1016.3
20260903054536 26 201 3.2 9.7 0.00 0.00 0.00 79 1016.2
20260903054010 26 203 3.2 8.0 0.00 0.00 0.00 79 1016.3
20260903053509 26 203 3.2 8.0 0.00 0.00 0.00 79 1016.2
20260903053030 26 207 3.2 6.4 0.00 0.00 0.00 79 1016.1
20260903052511 26 184 3.2 6.4 0.00 0.00 0.00 79 1016.1
20260903052011 26 193 3.2 8.0 0.00 0.00 0.00 79 1016.0
20260903051506 26 202 4.8 8.0 0.00 0.00 0.00 79 1016.0
20260903051006 26 207 3.2 6.4 0.00 0.00 0.00 80 1016.0
20260903050505 26 209 3.2 8.0 0.00 0.00 0.00 79 1015.9
20260903050009 26 213 3.2 8.0 0.00 0.00 0.00 79 1015.9
20260903045505 26 213 3.2 6.4 0.00 0.00 0.00 80 1015.8
20260903045004 26 219 3.2 6.4 0.00 0.00 0.00 80 1015.8
20260903044512 26 205 3.2 6.4 0.00 0.00 0.00 80 1015.8
20260903044007 26 194 3.2 6.4 0.00 0.00 0.00 80 1015.7
20260903043507 26 213 3.2 6.4 0.00 0.00 0.00 79 1015.7
20260903043016 26 204 3.2 8.0 0.00 0.00 0.00 79 1015.7
20260903042511 26 207 1.6 8.0 0.00 0.00 0.00 79 1015.6
20260903042015 26 215 3.2 8.0 0.00 0.00 0.00 79 1015.7
20260903041528 26 203 1.6 8.0 0.00 0.00 0.00 79 1015.8
20260903041014 26 215 3.2 6.4 0.00 0.00 0.00 79 1015.7
20260903040503 26 208 3.2 4.8 0.00 0.00 0.00 79 1015.7
20260903040004 26 210 3.2 4.8 0.00 0.00 0.00 79 1015.7
20260903035505 26 208 1.6 6.4 0.00 0.00 0.00 79 1015.8
20260903035004 26 210 1.6 6.4 0.00 0.00 0.00 78 1015.8
20260903034511 26 213 3.2 6.4 0.00 0.00 0.00 78 1015.8
20260903034007 26 213 3.2 6.4 0.00 0.00 0.00 78 1015.9
20260903033507 26 217 1.6 4.8 0.00 0.00 0.00 78 1015.9
20260903033017 26 202 3.2 4.8 0.00 0.00 0.00 78 1015.9
20260903032510 26 217 3.2 6.4 0.00 0.00 0.00 78 1015.9
20260903032009 27 223 3.2 6.4 0.00 0.00 0.00 78 1016.0
20260903031523 27 215 3.2 8.0 0.00 0.00 0.00 78 1016.1
20260903031014 27 198 3.2 8.0 0.00 0.00 0.00 78 1016.1
20260903030516 27 155 3.2 6.4 0.00 0.00 0.00 78 1016.1
20260903030039 27 200 3.2 4.8 0.00 0.00 0.00 78 1016.1
20260903025515 27 202 3.2 8.0 0.00 0.00 0.00 78 1016.1
20260903025006 27 216 3.2 8.0 0.00 0.00 0.00 78 1016.1
20260903024510 27 210 1.6 6.4 0.00 0.00 0.00 78 1016.2
20260903024003 27 213 1.6 6.4 0.00 0.00 0.00 77 1016.2
20260903023510 27 212 3.2 4.8 0.00 0.00 0.00 77 1016.2
20260903023015 27 207 3.2 4.8 0.00 0.00 0.00 77 1016.2
20260903022507 27 202 3.2 6.4 0.00 0.00 0.00 77 1016.2
20260903022010 27 211 3.2 8.0 0.00 0.00 0.00 77 1016.2
20260903021525 27 217 3.2 8.0 0.00 0.00 0.00 77 1016.3
20260903021013 27 213 3.2 8.0 0.00 0.00 0.00 77 1016.3
20260903020511 27 199 3.2 6.4 0.00 0.00 0.00 77 1016.2
20260903020031 27 223 3.2 6.4 0.00 0.00 0.00 77 1016.2
20260903015514 27 209 1.6 4.8 0.00 0.00 0.00 77 1016.2
20260903015016 27 202 1.6 4.8 0.00 0.00 0.00 78 1016.2
20260903014533 27 208 1.6 4.8 0.00 0.00 0.00 77 1016.1
20260903014004 27 207 1.6 6.4 0.00 0.00 0.00 77 1016.1
20260903013504 27 199 1.6 6.4 0.00 0.00 0.00 77 1016.0
20260903013011 27 203 1.6 4.8 0.00 0.00 0.00 77 1015.9
20260903012503 27 211 1.6 4.8 0.00 0.00 0.00 77 1016.0
20260903012009 27 213 1.6 4.8 0.00 0.00 0.00 77 1015.9
20260903011532 27 202 1.6 3.2 0.00 0.00 0.00 78 1015.9
20260903011011 27 209 0.0 3.2 0.00 0.00 0.00 78 1015.9
20260903010511 27 209 0.0 3.2 0.00 0.00 0.00 78 1015.8
20260903010024 27 209 1.6 3.2 0.00 0.00 0.00 77 1015.8
20260903005511 27 209 0.0 3.2 0.00 0.00 0.00 77 1015.8
20260903005016 27 209 0.0 3.2 0.00 0.00 0.00 77 1015.8
20260903004533 28 209 0.0 3.2 0.00 0.00 0.00 77 1015.7
20260903004016 28 209 0.0 3.2 0.00 0.00 0.00 76 1015.6
20260903003516 28 209 0.0 3.2 0.00 0.00 0.00 76 1015.6
20260903003008 28 209 0.0 3.2 0.00 0.00 0.00 75 1015.6
20260903002508 28 209 0.0 3.2 0.00 0.00 0.00 75 1015.5
20260903002007 28 209 0.0 3.2 0.00 0.00 0.00 73 1015.6
20260903001515 29 209 0.0 3.2 0.00 0.00 0.00 73 1015.6
20260903001009 29 209 0.0 3.2 0.00 0.00 0.00 72 1015.6
20260903000507 30 209 0.0 3.2 0.00 0.00 0.00 72 1015.5
20260903000020 30 209 0.0 3.2 0.00 0.00 0.00 71 1015.5
20260902235513 30 201 0.0 3.2 0.00 0.00 0.00 70 1015.5
20260902235015 30 205 0.0 3.2 0.00 0.00 0.00 69 1015.5
20260902234529 30 196 1.6 4.8 0.00 0.00 0.00 69 1015.5
20260902234014 30 212 1.6 4.8 0.00 0.00 0.00 68 1015.5
20260902233513 31 204 1.6 4.8 0.00 0.00 0.00 68 1015.5
20260902233037 31 209 3.2 6.4 0.00 0.00 0.00 67 1015.5
20260902232516 31 199 3.2 8.0 0.00 0.00 0.00 67 1015.5
20260902232007 31 223 4.8 8.0 0.00 0.00 0.00 65 1015.4
20260902231516 31 200 3.2 8.0 0.00 0.00 0.00 65 1015.4
20260902231007 32 232 4.8 8.0 0.00 0.00 0.00 65 1015.4
20260902230508 32 223 4.8 8.0 0.00 0.00 0.00 65 1015.4
20260902230021 32 200 3.2 8.0 0.00 0.00 0.00 64 1015.4
20260902225511 32 200 3.2 9.7 0.00 0.00 0.00 64 1015.4
20260902225013 32 208 3.2 9.7 0.00 0.00 0.00 63 1015.4
20260902224525 32 204 4.8 11.3 0.00 0.00 0.00 63 1015.4
20260902224018 32 200 4.8 12.9 0.00 0.00 0.00 63 1015.4
20260902223515 32 202 3.2 12.9 0.00 0.00 0.00 62 1015.4
20260902223030 32 208 4.8 12.9 0.00 0.00 0.00 61 1015.4
20260902222515 32 221 4.8 11.3 0.00 0.00 0.00 62 1015.4
20260902222015 33 224 4.8 11.3 0.00 0.00 0.00 62 1015.4
20260902221534 33 214 4.8 12.9 0.00 0.00 0.00 61 1015.4
20260902221006 33 183 6.4 12.9 0.00 0.00 0.00 61 1015.3
20260902220506 33 160 3.2 12.9 0.00 0.00 0.00 61 1015.4
20260902220014 33 217 6.4 12.9 0.00 0.00 0.00 61 1015.4
20260902215507 33 193 8.0 12.9 0.00 0.00 0.00 60 1015.4
20260902215009 33 221 6.4 12.9 0.00 0.00 0.00 60 1015.4
20260902214524 33 200 8.0 14.5 0.00 0.00 0.00 60 1015.3
20260902214011 33 188 4.8 14.5 0.00 0.00 0.00 60 1015.4
20260902213514 33 215 6.4 14.5 0.00 0.00 0.00 59 1015.5
20260902213030 33 229 4.8 16.1 0.00 0.00 0.00 59 1015.5
20260902212514 33 207 4.8 16.1 0.00 0.00 0.00 59 1015.5
20260902212014 33 194 6.4 17.7 0.00 0.00 0.00 59 1015.4
20260902211533 33 203 6.4 17.7 0.00 0.00 0.00 59 1015.4
20260902211016 33 218 8.0 14.5 0.00 0.00 0.00 57 1015.5
20260902210517 33 136 4.8 11.3 0.00 0.00 0.00 59 1015.5
20260902210012 33 177 4.8 17.7 0.00 0.00 0.00 61 1015.5
20260902205507 33 187 8.0 17.7 0.00 0.00 0.00 57 1015.5
20260902205008 33 211 6.4 14.5 0.00 0.00 0.00 59 1015.6
20260902204536 33 170 4.8 16.1 0.00 0.00 0.00 60 1015.6
20260902204013 33 206 6.4 16.1 0.00 0.00 0.00 58 1015.7
20260902203510 33 204 6.4 12.9 0.00 0.00 0.00 58 1015.7
20260902203027 33 180 4.8 14.5 0.00 0.00 0.00 59 1015.8
20260902202513 33 200 6.4 19.3 0.00 0.00 0.00 58 1015.9
20260902202015 33 187 6.4 19.3 0.00 0.00 0.00 58 1016.0
20260902201533 33 196 6.4 17.7 0.00 0.00 0.00 59 1016.1
20260902201016 33 185 6.4 14.5 0.00 0.00 0.00 59 1016.1
20260902200519 33 201 8.0 14.5 0.00 0.00 0.00 57 1016.2
20260902200031 33 171 4.8 12.9 0.00 0.00 0.00 57 1016.3
20260902195519 33 222 8.0 14.5 0.00 0.00 0.00 58 1016.3
20260902195007 33 214 6.4 14.5 0.00 0.00 0.00 58 1016.3
20260902194518 33 211 4.8 14.5 0.00 0.00 0.00 56 1016.3
20260902194014 33 176 4.8 14.5 0.00 0.00 0.00 57 1016.3
20260902193512 33 206 8.0 14.5 0.00 0.00 0.00 58 1016.4
20260902193026 33 217 4.8 14.5 0.00 0.00 0.00 60 1016.4
20260902192513 33 240 6.4 17.7 0.00 0.00 0.00 57 1016.5
20260902192015 33 216 4.8 17.7 0.00 0.00 0.00 58 1016.5
20260902191532 33 167 4.8 11.3 0.00 0.00 0.00 59 1016.5
20260902191014 33 240 6.4 17.7 0.00 0.00 0.00 57 1016.6
20260902190517 33 246 8.0 17.7 0.00 0.00 0.00 58 1016.8
20260902190035 33 175 6.4 17.7 0.00 0.00 0.00 60 1016.8
20260902185519 33 174 3.2 14.5 0.00 0.00 0.00 59 1016.9
20260902185016 33 206 4.8 12.9 0.00 0.00 0.00 58 1016.8
20260902184536 33 209 3.2 14.5 0.00 0.00 0.00 59 1016.9
20260902184007 33 168 4.8 19.3 0.00 0.00 0.00 57 1016.8
20260902183508 33 202 6.4 19.3 0.00 0.00 0.00 58 1016.8
20260902183031 33 182 6.4 11.3 0.00 0.00 0.00 58 1017.0
20260902182511 33 234 6.4 14.5 0.00 0.00 0.00 58 1017.1
20260902182012 33 203 6.4 14.5 0.00 0.00 0.00 61 1017.2
20260902181528 33 203 4.8 16.1 0.00 0.00 0.00 59 1017.2
20260902181016 33 233 3.2 16.1 0.00 0.00 0.00 60 1017.1
20260902180514 33 205 4.8 12.9 0.00 0.00 0.00 60 1017.1
20260902180030 33 236 4.8 12.9 0.00 0.00 0.00 58 1017.2
20260902175517 32 211 4.8 14.5 0.00 0.00 0.00 60 1017.2
20260902175016 32 196 4.8 14.5 0.00 0.00 0.00 59 1017.3
20260902174534 32 194 6.4 12.9 0.00 0.00 0.00 60 1017.3
20260902174008 32 245 3.2 11.3 0.00 0.00 0.00 57 1017.4
20260902173508 32 187 4.8 14.5 0.00 0.00 0.00 58 1017.5
20260902173019 32 213 6.4 14.5 0.00 0.00 0.00 58 1017.6
20260902172511 32 217 6.4 11.3 0.00 0.00 0.00 59 1017.6
20260902172010 32 176 3.2 11.3 0.00 0.00 0.00 60 1017.6
20260902171502 32 195 3.2 11.3 0.00 0.00 0.00 61 1017.7
20260902171004 32 228 6.4 11.3 0.00 0.00 0.00 59 1017.8
20260902170503 32 257 4.8 11.3 0.00 0.00 0.00 61 1017.8
20260902170010 32 186 3.2 9.7 0.00 0.00 0.00 58 1017.8
20260902165504 32 209 3.2 9.7 0.00 0.00 0.00 62 1017.8
20260902165007 32 242 4.8 8.0 0.00 0.00 0.00 58 1017.8
20260902164517 32 263 3.2 11.3 0.00 0.00 0.00 62 1017.8
20260902164005 32 242 4.8 14.5 0.00 0.00 0.00 62 1017.9
20260902163508 32 242 4.8 14.5 0.00 0.00 0.00 63 1017.9
20260902163018 32 225 3.2 9.7 0.00 0.00 0.00 63 1017.9
20260902162508 31 279 3.2 9.7 0.00 0.00 0.00 60 1018.0
20260902162012 31 198 3.2 9.7 0.00 0.00 0.00 63 1018.0
20260902161524 31 198 4.8 11.3 0.00 0.00 0.00 62 1018.0
20260902161015 31 269 3.2 11.3 0.00 0.00 0.00 66 1018.0
20260902160503 31 205 3.2 12.9 0.00 0.00 0.00 62 1018.0
20260902160005 31 167 4.8 14.5 0.00 0.00 0.00 64 1018.0
20260902155503 31 173 4.8 14.5 0.00 0.00 0.00 65 1018.1
20260902155003 31 204 4.8 12.9 0.00 0.00 0.00 65 1018.0
20260902154507 31 211 4.8 14.5 0.00 0.00 0.00 64 1018.0
20260902154007 31 215 4.8 14.5 0.00 0.00 0.00 67 1018.1
20260902153507 30 252 6.4 12.9 0.00 0.00 0.00 66 1018.0
20260902153018 30 294 4.8 11.3 0.00 0.00 0.00 67 1018.0
20260902152507 30 284 6.4 11.3 0.00 0.00 0.00 66 1018.0
20260902152008 30 206 3.2 9.7 0.00 0.00 0.00 69 1017.9
20260902151523 30 229 3.2 9.7 0.00 0.00 0.00 68 1017.9
20260902151011 30 267 3.2 12.9 0.00 0.00 0.00 68 1017.9
20260902150513 30 231 4.8 12.9 0.00 0.00 0.00 70 1017.9
20260902150027 30 195 3.2 11.3 0.00 0.00 0.00 70 1017.9
20260902145503 29 217 3.2 11.3 0.00 0.00 0.00 68 1018.0
20260902145003 29 196 4.8 9.7 0.00 0.00 0.00 70 1018.0
20260902144507 29 344 3.2 11.3 0.00 0.00 0.00 69 1017.9
20260902144005 29 239 4.8 11.3 0.00 0.00 0.00 69 1018.0
20260902143504 29 243 3.2 11.3 0.00 0.00 0.00 71 1017.9
20260902143012 28 217 3.2 11.3 0.00 0.00 0.00 70 1018.0
20260902142508 28 192 4.8 11.3 0.00 0.00 0.00 70 1018.0
20260902142011 28 238 4.8 11.3 0.00 0.00 0.00 70 1018.1
20260902141524 28 213 3.2 12.9 0.00 0.00 0.00 71 1018.0
20260902141012 28 240 6.4 12.9 0.00 0.00 0.00 70 1018.1
20260902140511 28 250 4.8 11.3 0.00 0.00 0.00 70 1018.2
20260902140034 28 184 3.2 9.7 0.00 0.00 0.00 71 1018.2
20260902135512 28 231 4.8 8.0 0.00 0.00 0.00 70 1018.2
20260902135015 28 221 3.2 9.7 0.00 0.00 0.00 71 1018.2
20260902134507 28 255 3.2 9.7 0.00 0.00 0.00 71 1018.3
20260902134003 28 182 4.8 9.7 0.00 0.00 0.00 71 1018.2
20260902133503 27 248 3.2 8.0 0.00 0.00 0.00 71 1018.1
20260902133012 27 215 3.2 11.3 0.00 0.00 0.00 72 1018.2
20260902132509 27 223 4.8 9.7 0.00 0.00 0.00 73 1018.2
20260902132006 27 248 4.8 11.3 0.00 0.00 0.00 73 1018.1
20260902131517 27 208 4.8 12.9 0.00 0.00 0.00 73 1018.2
20260902131007 27 261 4.8 12.9 0.00 0.00 0.00 73 1018.1
20260902130512 26 273 1.6 8.0 0.00 0.00 0.00 77 1018.1
20260902130025 26 352 3.2 6.4 0.00 0.00 0.00 76 1018.1
20260902125513 26 295 3.2 8.0 0.00 0.00 0.00 78 1018.2
20260902125013 25 232 1.6 8.0 0.00 0.00 0.00 78 1018.1
20260902124533 25 231 1.6 6.4 0.00 0.00 0.00 78 1018.2
20260902124016 25 219 3.2 6.4 0.00 0.00 0.00 81 1018.2
20260902123504 25 261 3.2 6.4 0.00 0.00 0.00 81 1018.2
20260902123008 24 227 1.6 6.4 0.00 0.00 0.00 82 1018.2
20260902122505 24 195 3.2 6.4 0.00 0.00 0.00 82 1018.3
20260902122007 23 198 1.6 6.4 0.00 0.00 0.00 83 1018.3
20260902121512 23 232 1.6 6.4 0.00 0.00 0.00 84 1018.3
20260902121007 23 221 1.6 4.8 0.00 0.00 0.00 84 1018.3
20260902120508 23 220 1.6 3.2 0.00 0.00 0.00 84 1018.3
20260902120022 23 251 1.6 3.2 0.00 0.00 0.00 84 1018.3
20260902115511 23 205 0.0 3.2 0.00 0.00 0.00 84 1018.2
20260902115013 23 200 1.6 4.8 0.00 0.00 0.00 84 1018.1
20260902114529 23 206 1.6 4.8 0.00 0.00 0.00 84 1018.0
20260902114016 23 209 1.6 3.2 0.00 0.00 0.00 84 1017.9
20260902113513 23 206 1.6 3.2 0.00 0.00 0.00 84 1017.9
20260902113034 23 206 1.6 4.8 0.00 0.00 0.00 84 1017.8
20260902112503 23 199 0.0 4.8 0.00 0.00 0.00 84 1017.8
20260902112006 23 210 0.0 3.2 0.00 0.00 0.00 84 1017.8
20260902111511 23 210 1.6 3.2 0.00 0.00 0.00 84 1017.8
20260902111008 23 210 1.6 3.2 0.00 0.00 0.00 84 1017.7
20260902110507 23 210 0.0 3.2 0.00 0.00 0.00 84 1017.6
20260902110019 23 208 1.6 3.2 0.00 0.00 0.00 84 1017.6
20260902105510 23 197 0.0 3.2 0.00 0.00 0.00 84 1017.6
20260902105013 23 197 1.6 3.2 0.00 0.00 0.00 84 1017.5
20260902104523 23 197 0.0 3.2 0.00 0.00 0.00 84 1017.4
20260902104012 23 197 1.6 3.2 0.00 0.00 0.00 83 1017.3
20260902103512 23 192 1.6 4.8 0.00 0.00 0.00 83 1017.3
20260902103037 23 210 3.2 4.8 0.00 0.00 0.00 83 1017.3
20260902102516 23 198 3.2 4.8 0.00 0.00 0.00 83 1017.3
20260902102017 23 202 3.2 4.8 0.00 0.00 0.00 83 1017.3
20260902101520 23 201 1.6 3.2 0.00 0.00 0.00 83 1017.3
20260902101007 23 217 1.6 4.8 0.00 0.00 0.00 83 1017.2
20260902100507 23 210 3.2 4.8 0.00 0.00 0.00 82 1017.2
20260902100016 23 188 3.2 4.8 0.00 0.00 0.00 82 1017.2
20260902095510 23 209 1.6 4.8 0.00 0.00 0.00 82 1017.1
20260902095012 23 216 3.2 4.8 0.00 0.00 0.00 82 1017.1
20260902094524 23 213 3.2 6.4 0.00 0.00 0.00 82 1017.1
20260902094012 23 198 3.2 8.0 0.00 0.00 0.00 82 1017.1
20260902093513 23 217 3.2 8.0 0.00 0.00 0.00 82 1017.2
20260902093036 23 200 1.6 4.8 0.00 0.00 0.00 82 1017.2